Location: Kershaw
(34.5481°N, 80.5823°W)
Time: 05:13:41
(UTC+00:00)

SR - Visible Passes

Search period start: 08 December 2023 00:00
Search period end: 18 December 2023 00:00
Orbit: 571 x 872 km, 66.7° (Epoch: 07 December)

Date Brightness Start Highest point End Pass type
(mag) Time Alt. Az. Time Alt. Az. Time Alt. Az.
09 Dec ? 00:26:13 10° N 00:27:29 16° N 00:27:29 16° N visible
09 Dec ? 23:35:30 10° N 23:38:04 18° NNE 23:38:04 18° NNE visible
10 Dec ? 01:16:24 10° NW 01:17:24 15° NW 01:17:24 15° NW visible
11 Dec ? 00:24:48 10° NNW 00:28:16 36° N 00:28:16 36° N visible
11 Dec ? 23:33:39 10° N 23:38:41 31° NE 23:39:31 30° ENE visible
12 Dec ? 01:15:40 10° NW 01:18:54 27° WNW 01:18:54 27° WNW visible
12 Dec ? 22:43:08 10° N 22:46:38 16° NE 22:50:01 10° E visible
13 Dec ? 00:23:38 10° NNW 00:29:16 72° WSW 00:30:56 44° S visible
13 Dec ? 23:32:08 10° NNW 23:37:41 53° ENE 23:42:48 10° SE visible
14 Dec ? 01:15:34 10° WNW 01:19:02 17° WSW 01:22:22 10° SW visible
14 Dec ? 22:41:06 10° N 22:45:50 26° NE 22:50:18 10° ESE visible
15 Dec ? 00:22:46 10° NW 00:27:54 38° WSW 00:32:39 10° S visible
15 Dec ? 23:30:52 10° NNW 23:36:31 86° WSW 23:41:42 10° SSE visible
16 Dec ? 22:39:29 10° NNW 22:44:53 44° ENE 22:49:52 10° SE visible
17 Dec ? 00:22:23 10° WNW 00:26:24 21° WSW 00:30:11 10° SSW visible
17 Dec ? 23:29:53 10° NW 23:35:12 47° WSW 23:40:05 10° S visible
